Weather reports worldwide

Advertisment
Marina Di Ginosa, Italy (16325): temperature & dewpoint: 20.10.2020 22:00:00 - 26.10.2020 22:00:00 (CET)Marina Di Ginosa, Italy (16325): wind speed: 20.10.2020 22:00:00 - 26.10.2020 22:00:00 (CET)Marina Di Ginosa, Italy (16325): wind direction: 20.10.2020 22:00:00 - 26.10.2020 22:00:00 (CET)Marina Di Ginosa, Italy (16325): reduced air pressure: 20.10.2020 22:00:00 - 26.10.2020 22:00:00 (CET)Marina Di Ginosa, Italy (16325): visibility: 20.10.2020 22:00:00 - 26.10.2020 22:00:00 (CET)
Date & Time tt [°C] td [°C] ff [km/h] ff [kn] dd ppp [hPa] vv [km]
26.10.2020 22:00:00 - - - - - - -
26.10.2020 21:00:00 - - - - - - -
26.10.2020 20:00:00 - - - - - - -
26.10.2020 19:00:00 21,0 17,2 18 10 S 1013,2 20
26.10.2020 18:00:00 21,0 18,0 22 12 SSE - 10
26.10.2020 17:00:00 21,0 17,0 28 15 SSE - 10
26.10.2020 16:00:00 22,0 17,6 29 16 SSE 1013,4 20
26.10.2020 15:00:00 22,0 17,0 26 14 SSE - 10
26.10.2020 14:00:00 22,0 15,0 15 8 S - 10
26.10.2020 13:00:00 22,0 15,4 15 8 SSE 1014,7 20
26.10.2020 12:00:00 22,0 15,0 13 7 SE - 10
26.10.2020 11:00:00 20,0 14,0 5 3 - - 10
26.10.2020 10:00:00 16,0 11,8 4 2 WSW 1015,5 15
26.10.2020 09:00:00 12,0 11,0 5 3 - - 10
26.10.2020 08:00:00 11,0 10,0 9 5 WNW - 10
26.10.2020 07:00:00 11,0 9,9 11 6 W 1015,3 15
26.10.2020 06:00:00 - - - - - - -
26.10.2020 05:00:00 - - - - - - -
26.10.2020 04:00:00 - - - - - - -
26.10.2020 03:00:00 - - - - - - -
26.10.2020 02:00:00 - - - - - - -
26.10.2020 01:00:00 - - - - - - -
26.10.2020 00:00:00 - - - - - - -
25.10.2020 23:00:00 - - - - - - -
25.10.2020 22:00:00 - - - - - - -
25.10.2020 21:00:00 - - - - - - -
25.10.2020 20:00:00 - - - - - - -
25.10.2020 19:00:00 19,2 15,7 11 6 W 1015,4 10
25.10.2020 18:00:00 20,0 16,0 13 7 W - 10
25.10.2020 17:00:00 20,0 16,0 11 6 W - 10
25.10.2020 16:00:00 21,8 11,2 5 3 W 1014,4 20
25.10.2020 15:00:00 22,0 11,0 13 7 W - 10
25.10.2020 14:00:00 22,0 11,0 9 5 W - 10
25.10.2020 13:00:00 23,0 13,4 9 5 W 1015,3 20
25.10.2020 12:00:00 22,0 11,0 13 7 W - 10
25.10.2020 11:00:00 20,0 16,0 11 6 W - 10
25.10.2020 10:00:00 18,0 14,7 9 5 W 1015,4 20
25.10.2020 09:00:00 14,0 10,0 11 6 W - 10
25.10.2020 08:00:00 13,0 11,0 9 5 W - -
25.10.2020 07:00:00 14,0 11,5 8 4 WSW 1015,8 4,0
25.10.2020 06:00:00 - - - - - - -
25.10.2020 05:00:00 - - - - - - -
25.10.2020 04:00:00 - - - - - - -
25.10.2020 03:00:00 - - - - - - -
25.10.2020 02:00:00 - - - - - - -
25.10.2020 01:00:00 - - - - - - -
25.10.2020 00:00:00 - - - - - - -
24.10.2020 23:00:00 - - - - - - -
24.10.2020 22:00:00 - - - - - - -
24.10.2020 21:00:00 - - - - - - -
24.10.2020 20:00:00 - - - - - - -
24.10.2020 19:00:00 19,2 16,4 16 9 NNW 1016,4 18
24.10.2020 18:00:00 20,0 18,0 2 1 NNE - 10
24.10.2020 17:00:00 21,0 18,0 4 2 SW - 10
24.10.2020 16:00:00 21,8 18,6 8 4 S 1015,8 15
24.10.2020 15:00:00 22,0 17,0 8 4 S - 10
24.10.2020 14:00:00 22,0 17,0 8 4 SE - 10
24.10.2020 13:00:00 21,4 16,6 4 2 N 1016,6 12
24.10.2020 12:00:00 21,0 16,0 5 3 SE - 10
24.10.2020 11:00:00 20,0 16,0 8 4 WNW - 8
24.10.2020 10:00:00 19,2 15,7 9 5 WNW 1017,8 7
24.10.2020 09:00:00 18,0 15,0 9 5 WNW - 6
24.10.2020 08:00:00 15,0 13,0 9 5 NW - 6
24.10.2020 07:00:00 12,8 11,4 11 6 WNW 1017,8 6
24.10.2020 06:00:00 - - - - - - -
24.10.2020 05:00:00 - - - - - - -
24.10.2020 04:00:00 - - - - - - -
24.10.2020 03:00:00 - - - - - - -
24.10.2020 02:00:00 - - - - - - -
24.10.2020 01:00:00 - - - - - - -
24.10.2020 00:00:00 - - - - - - -
23.10.2020 23:00:00 - - - - - - -
23.10.2020 22:00:00 - - - - - - -
23.10.2020 21:00:00 - - - - - - -
23.10.2020 20:00:00 - - - - - - -
23.10.2020 19:00:00 15,0 13,0 9 5 W 1020,2 15
23.10.2020 18:00:00 15,0 13,0 11 6 SW - 10
23.10.2020 17:00:00 19,0 14,0 9 5 SSW - 10
23.10.2020 16:00:00 22,0 14,4 9 5 S 1019,8 30
23.10.2020 15:00:00 22,0 13,0 8 4 S - 10
23.10.2020 14:00:00 22,0 14,0 15 8 SE - 10
23.10.2020 13:00:00 22,0 11,1 13 7 SSE 1020,4 30
23.10.2020 12:00:00 22,0 11,0 11 6 SSE - 10
23.10.2020 11:00:00 21,0 11,0 9 5 SE - 10
23.10.2020 10:00:00 18,0 10,1 4 2 N 1022,4 30
23.10.2020 09:00:00 14,0 10,0 9 5 WNW - 10
23.10.2020 08:00:00 12,0 10,0 13 7 WNW - 10
23.10.2020 07:00:00 10,0 8,6 15 8 W 1021,7 20
23.10.2020 06:00:00 - - - - - - -
23.10.2020 05:00:00 - - - - - - -
23.10.2020 04:00:00 - - - - - - -
23.10.2020 03:00:00 - - - - - - -
23.10.2020 02:00:00 - - - - - - -
23.10.2020 01:00:00 - - - - - - -
23.10.2020 00:00:00 - - - - - - -
22.10.2020 23:00:00 - - - - - - -
22.10.2020 22:00:00 - - - - - - -
22.10.2020 21:00:00 - - - - - - -
22.10.2020 20:00:00 - - - - - - -
22.10.2020 19:00:00 14,6 11,2 8 4 NW 1022,6 30
22.10.2020 18:00:00 16,0 12,0 9 5 WSW - 10
22.10.2020 17:00:00 19,0 12,0 11 6 SW - 10
22.10.2020 16:00:00 20,8 10,0 15 8 SSW 1022,0 30
22.10.2020 15:00:00 22,0 9,0 11 6 S - 10
22.10.2020 14:00:00 22,0 10,0 11 6 SSE - 10
22.10.2020 13:00:00 21,0 8,0 13 7 SE 1022,9 30
22.10.2020 12:00:00 22,0 7,0 9 5 SE - 10
22.10.2020 11:00:00 21,0 8,0 4 2 NNW - 10
22.10.2020 10:00:00 17,4 9,1 4 2 N 1024,3 30
22.10.2020 09:00:00 14,0 9,0 11 6 WNW - 10
22.10.2020 08:00:00 11,0 8,0 11 6 NW - 10
22.10.2020 07:00:00 8,8 7,6 16 9 WNW 1023,3 20
22.10.2020 06:00:00 - - - - - - -
22.10.2020 05:00:00 - - - - - - -
22.10.2020 04:00:00 - - - - - - -
22.10.2020 03:00:00 - - - - - - -
22.10.2020 02:00:00 - - - - - - -
22.10.2020 01:00:00 - - - - - - -
22.10.2020 00:00:00 - - - - - - -
21.10.2020 23:00:00 - - - - - - -
21.10.2020 22:00:00 - - - - - - -
21.10.2020 21:00:00 - - - - - - -
21.10.2020 20:00:00 - - - - - - -
21.10.2020 19:00:00 12,6 8,9 11 6 W 1023,0 40
21.10.2020 18:00:00 13,0 9,0 8 4 SW - 10
21.10.2020 17:00:00 17,0 8,0 5 3 S - 10
21.10.2020 16:00:00 21,0 5,4 11 6 SE 1022,8 40
21.10.2020 15:00:00 22,0 5,0 11 6 SE - 10
21.10.2020 14:00:00 21,0 7,0 16 9 SE - 10
21.10.2020 13:00:00 21,2 7,1 11 6 SE 1023,6 40
21.10.2020 12:00:00 21,0 4,0 5 3 - - 10
21.10.2020 11:00:00 20,0 5,0 8 4 WNW - 10
21.10.2020 10:00:00 18,0 10,1 8 4 WNW 1024,6 25
21.10.2020 09:00:00 13,0 9,0 11 6 W - 10
21.10.2020 08:00:00 11,0 8,0 15 8 WNW - 10
21.10.2020 07:00:00 9,0 7,8 16 9 WNW 1024,2 25
21.10.2020 06:00:00 - - - - - - -
21.10.2020 05:00:00 - - - - - - -
21.10.2020 04:00:00 - - - - - - -
21.10.2020 03:00:00 - - - - - - -
21.10.2020 02:00:00 - - - - - - -
21.10.2020 01:00:00 - - - - - - -
21.10.2020 00:00:00 - - - - - - -
20.10.2020 23:00:00 - - - - - - -
20.10.2020 22:00:00 - - - - - - -

tt = temperature
td = dewpoint
ff = wind speed
dd = wind direction
ppp = reduced air pressure
vv = visibility

Next stations